Monroe, NC

7:47 PM EST on February 23, 2017 (GMT -0500)
Monroe

Weather History for KEQY - January, 2013

Change the Weather History Date:

Sunday, January 20, 2013

  Actual Average (KCLT) Record (KCLT)
Temperature  
Mean Temperature 50 °F -  
Max Temperature 63 °F 49 °F 71 °F (1951)
Min Temperature 36 °F 28 °F -2 °F (1985)
Degree Days  
Heating Degree Days 16    
Moisture  
Dew Point 31 °F    
Average Humidity 53    
Maximum Humidity 76    
Minimum Humidity 31    
Precipitation  
Precipitation 0.00 in - - ()
Sea Level Pressure  
Sea Level Pressure 30.13 in    
Wind  
Wind Speed 8 mph (WSW)    
Max Wind Speed 12 mph    
Max Gust Speed 20 mph    
Visibility 10 miles    
Events      
Averages and records for this station are not official NWS values.
T = Trace of Precipitation, MM = Missing Value Source: NWS Daily Summary

Daily Weather History Graph

Daily Weather History Graph

Search for Another Location

Airport or City:

Trip Planner

Search our weather history database for the weather conditions in past years. The results will help you decide how hot, cold, wet, or windy it might be!

Date:

Astronomy

Jan. 20, 2013 Rise Set
Actual Time 7:28 AM EST 5:39 PM EST
Civil Twilight 7:01 AM EST 6:06 PM EST
Nautical Twilight 6:30 AM EST 6:37 PM EST
Astronomical Twilight 5:59 AM EST 7:07 PM EST
Moon 12:38 PM EST (1/20) 2:00 AM EST (1/20)
Length of Visible Light 11h 05m
Length of Day
10h 11m
Waxing Gibbous, 66% of the Moon is Illuminated
Jan 20
Waxing Gibbous
Jan 26
Full
Feb 3
Last Quarter
Feb 10
New
Feb 17
First Quarter

Hourly Weather History & Observations

Time (EST) Temp. Windchill Dew Point Humidity Pressure Visibility Wind Dir Wind Speed Gust Speed Precip Events Conditions
12:53 AM 39.0 °F 32.8 °F 30.9 °F 73% 30.20 in 10.0 mi SW 9.2 mph - N/A   Clear
1:53 AM 39.9 °F 33.9 °F 30.0 °F 68% 30.19 in 10.0 mi SW 9.2 mph - N/A   Clear
2:53 AM 41.0 °F 35.2 °F 28.9 °F 62% 30.17 in 10.0 mi WSW 9.2 mph - N/A   Clear
3:53 AM 39.9 °F 33.9 °F 28.9 °F 65% 30.17 in 10.0 mi WSW 9.2 mph - N/A   Clear
4:53 AM 39.9 °F 33.9 °F 28.9 °F 65% 30.15 in 10.0 mi SW 9.2 mph - N/A   Clear
5:53 AM 37.0 °F 31.6 °F 28.9 °F 73% 30.15 in 10.0 mi SW 6.9 mph - N/A   Clear
6:53 AM 37.0 °F 32.4 °F 28.0 °F 70% 30.15 in 10.0 mi WSW 5.8 mph - N/A   Clear
7:53 AM 36.0 °F 29.6 °F 28.9 °F 76% 30.16 in 10.0 mi SW 8.1 mph - N/A   Clear
8:53 AM 42.1 °F 36.1 °F 30.9 °F 65% 30.17 in 10.0 mi WSW 10.4 mph - N/A   Clear
9:53 AM 45.0 °F 40.1 °F 32.0 °F 60% 30.18 in 10.0 mi WSW 9.2 mph - N/A   Clear
10:53 AM 50.0 °F - 32.0 °F 50% 30.17 in 10.0 mi West 8.1 mph - N/A   Clear
11:53 AM 55.9 °F - 30.9 °F 39% 30.13 in 10.0 mi WSW 8.1 mph - N/A   Clear
12:53 PM 59.0 °F - 32.0 °F 36% 30.09 in 10.0 mi West 8.1 mph - N/A   Clear
1:53 PM 62.1 °F - 35.1 °F 37% 30.06 in 10.0 mi WSW 11.5 mph 19.6 mph N/A   Clear
2:53 PM 63.0 °F - 32.0 °F 31% 30.05 in 10.0 mi WNW 10.4 mph 19.6 mph N/A   Clear
3:53 PM 63.0 °F - 34.0 °F 34% 30.05 in 10.0 mi West 10.4 mph - N/A   Clear
4:53 PM 61.0 °F - 34.0 °F 36% 30.05 in 10.0 mi SW 9.2 mph - N/A   Clear
5:53 PM 55.0 °F - 34.0 °F 45% 30.08 in 10.0 mi SW 6.9 mph - N/A   Clear
6:53 PM 55.0 °F - 32.0 °F 42% 30.09 in 10.0 mi Calm Calm - N/A   Clear
7:53 PM 53.1 °F - 32.0 °F 45% 30.10 in 10.0 mi Calm Calm - N/A   Clear
8:53 PM 51.1 °F - 30.9 °F 46% 30.12 in 10.0 mi North 8.1 mph - N/A   Clear
9:53 PM 50.0 °F - 28.0 °F 43% 30.13 in 10.0 mi North 8.1 mph - N/A   Clear
10:53 PM 48.9 °F - 26.1 °F 41% 30.13 in 10.0 mi North 4.6 mph - N/A   Clear
11:53 PM 39.0 °F - 30.0 °F 70% 30.13 in 10.0 mi Calm Calm - N/A   Clear